Flag for Germany Weather past 2 weeks in Limburg an der Lahn, Hesse, Germany

Now
73 °F

Passing clouds.


Feels Like: 77 °F
Forecast: 57 / 83 °F
Wind: 7 mph from Southeast

Location: Hessen

Current Time: Aug 1, 2014 at 7:02:26 PM

Latest Report: Aug 1, 2014 at 6:20 PM


Visibility: N/A

Pressure: 29.89 "Hg

Humidity: 57%

Dew point: 57 °F

Location of Limburg an der LahnLocation

Historic Weather in Limburg an der Lahn — Graph

°F

Limburg an der Lahn temperature yesterday

Maximum temperature yesterday: 72 °F (at 4:50 PM)
Minimum temperature yesterday: 55 °F (at 7:50 AM)
Average temperature yesterday: 66 °F

Past Weeks' High & Low Weather Summary

 TemperatureHumidityPressure
High82 °F (Jul 19, 2:50 PM)100% (Jul 21, 8:50 AM)30.21 "Hg (Jul 21, 8:50 AM)
Low55 °F (Jul 25, 7:50 AM)42% (Jul 19, 3:50 PM)29.80 "Hg (Jul 29, 6:50 PM)
Average69 °F73%29.98 "Hg
* Reported Jul 17 5:20 PM — Aug 1 5:50 PM, Limburg an der Lahn, Weather by CustomWeather, © 2014

Note: Actual official high and low records may vary slightly from our data, if they occured in-between our weather recording intervals... More about our weather records

Advertising

Limburg an der Lahn weather history for previous 24 hours

 ConditionsComfort  
Time TempWeatherWind HumidityBarometerVisibility
5:50 PM
Aug 1
73 °FPassing clouds.6 mph57%29.89 "HgN/A
5:20 PM73 °FPassing clouds.7 mph53%29.89 "HgN/A
4:50 PM73 °FPassing clouds.5 mph61%29.89 "HgN/A
4:20 PM72 °FScattered clouds.6 mph61%29.92 "HgN/A
3:50 PM72 °FScattered clouds.7 mph65%29.92 "HgN/A
3:20 PM72 °FScattered clouds.8 mph65%29.92 "HgN/A
2:50 PM72 °FScattered clouds.6 mph61%29.92 "HgN/A
2:20 PM72 °FBroken clouds.8 mph61%29.92 "HgN/A
1:50 PM72 °FScattered clouds.7 mph57%29.92 "HgN/A
1:20 PM72 °FScattered clouds.6 mph61%29.92 "HgN/A
12:50 PM70 °FScattered clouds.9 mph60%29.95 "HgN/A
12:20 PM70 °FScattered clouds.8 mph57%29.95 "HgN/A
11:50 AM68 °FPassing clouds.6 mph64%29.95 "HgN/A
11:20 AM70 °FPassing clouds.7 mph57%29.95 "HgN/A
10:50 AM68 °FPassing clouds.6 mph64%29.95 "HgN/A
10:20 AM68 °FPassing clouds.8 mph64%29.95 "HgN/A
9:50 AM68 °FSunny.7 mph69%29.95 "Hg10 mi
9:20 AM66 °FSunny.7 mph73%29.95 "Hg10 mi
8:50 AM66 °FSunny.5 mph73%29.95 "Hg10 mi
8:20 AM64 °FSunny.6 mph73%29.95 "Hg10 mi
7:50 AM64 °FSunny.3 mph73%29.95 "Hg10 mi
9:50 PM
Jul 31
64 °FSunny.3 mph64%30.01 "Hg10 mi
9:20 PM66 °FSunny.2 mph60%30.01 "Hg10 mi
8:50 PM68 °FSunny.2 mph60%30.01 "Hg10 mi
8:20 PM68 °FPassing clouds.3 mph56%30.01 "HgN/A
7:50 PM70 °FPassing clouds.3 mph50%30.01 "HgN/A
7:20 PM70 °FPassing clouds.3 mph53%30.01 "HgN/A
Weather by CustomWeather, © 2014

See weather overviewHow to use our weather pages